User: anonymous   Login
Location: Unspecified
(0.0000°N, 0.0000°E)
Time: 17:04:20
(UTC+00:00)
Language:

Meteosat 1 - Orbit

View from above orbital plane
View from above orbital plane
View from above satellite
View from above satellite

Ground track
Ground track

The orbit data is extracted from the following two-line orbital elements,

1 10489U 77108A   17264.88899236 -.00000336  00000-0  00000+0 0  9990
2 10489  12.2462 319.5638 0012281 348.3230 111.6239  1.00372554105267
Epoch (UTC): 21 September 2017 21:20:08
Eccentricity: 0.0012281
inclination: 12.2462°
perigee height: 35706 km
apogee height: 35810 km
right ascension of ascending node: 319.5638°
argument of perigee: 348.3230°
revolutions per day: 1.00372554
mean anomaly at epoch: 111.6239°
orbit number at epoch: 10526

The dashed part of the orbit path shows where the satellite is in the earth's shadow,  

DLR